Wind_Speed
72 72 72 72 63 50 46 49 50 51 51 49 49 49 49 49 46 43 43 42 40 42 43 45 47 43 39 38 38 39 39 35 34 33 31 30 27 22 20 22 22 21 21 22 20 18 18 19 18 18 18 17 18 19 18 16 16 16 15 15 17 16 16 16 17 18 19 20 22 23 25 26 27 27 25 24 24 24 23 23 22 23 24 25 25 25
72 74 72 69 67 59 49 47 49 52 52 49 49 49 50 50 48 46 44 44 42 43 43 44 48 45 41 40 39 40 42 36 33 33 33 32 32 28 23 22 23 23 23 22 19 18 18 19 19 18 18 18 18 19 20 18 18 17 16 17 18 17 16 17 18 19 20 21 23 23 24 26 27 26 25 25 25 24 24 23 23 24 26 27 27 27
74 74 71 67 69 66 56 49 49 52 52 50 50 50 51 50 50 50 49 46 44 43 44 44 47 45 42 41 40 41 42 38 36 36 35 35 35 32 26 23 24 25 23 20 18 19 19 19 20 18 18 18 19 20 20 20 20 19 19 20 20 18 16 17 19 19 20 22 23 23 24 25 26 26 26 26 25 24 24 25 26 26 27 29 28 28
74 72 69 67 70 71 65 57 51 52 54 53 52 52 52 51 50 51 52 51 47 44 44 44 46 44 41 41 41 40 41 41 40 39 38 37 36 33 29 26 26 25 22 20 18 18 19 19 19 18 18 19 20 20 20 21 22 22 22 22 22 20 18 18 19 20 22 22 23 23 24 25 25 26 27 26 25 26 27 28 28 29 29 29 29 29
66 66 66 66 69 73 71 64 57 55 57 56 55 54 53 51 50 51 52 54 51 47 45 44 45 44 40 40 39 38 41 41 40 40 39 38 36 33 31 29 26 24 23 22 19 18 18 19 19 19 20 20 20 20 20 22 23 24 24 24 24 23 21 20 20 21 22 23 23 23 24 25 26 26 27 26 27 28 29 29 30 29 29 29 30 30
63 63 66 67 67 70 71 68 62 58 58 57 56 56 54 52 50 51 52 54 54 52 48 45 45 44 40 39 37 36 38 38 37 40 40 38 37 35 33 30 28 25 24 24 22 19 19 19 19 19 19 19 20 21 22 23 24 24 25 25 25 24 24 24 22 22 22 23 23 23 23 25 26 26 26 27 29 30 30 31 31 30 30 30 30 31
62 65 68 69 69 68 70 70 63 57 56 57 55 53 53 53 52 52 52 53 56 55 51 47 46 45 41 38 35 34 35 34 35 37 38 37 37 36 34 32 30 28 26 26 25 23 21 21 21 20 19 20 20 22 24 25 24 24 25 25 25 25 25 25 25 24 24 23 24 24 24 25 26 26 27 29 30 31 32 32 32 32 31 31 31 32
60 64 69 72 71 69 70 72 67 59 56 56 51 48 50 52 53 54 54 54 57 56 53 49 47 46 41 34 32 33 33 32 31 32 33 34 35 36 36 34 31 30 29 29 29 29 27 25 24 24 23 22 22 24 25 25 24 25 25 25 26 25 25 25 26 26 25 26 26 26 26 25 26 27 29 31 32 32 33 33 33 34 34 34 33 33
54 61 67 71 73 73 72 71 70 66 61 58 53 49 50 52 53 54 56 56 57 58 56 51 47 47 43 33 29 32 33 30 27 26 27 29 31 33 34 34 33 32 32 31 30 31 32 29 27 27 27 27 26 26 25 25 26 26 26 25 25 25 25 25 26 27 27 28 29 28 27 27 27 28 30 32 32 33 34 34 34 35 36 36 36 36
54 56 61 67 71 73 72 70 71 70 67 64 60 56 52 52 53 55 58 58 59 60 57 51 46 47 47 39 31 32 32 28 24 24 25 24 25 28 29 31 32 33 34 33 31 30 32 32 31 31 31 30 29 28 27 26 27 27 26 26 25 26 26 26 27 27 28 29 30 30 30 29 29 30 31 32 32 33 34 35 35 36 37 38 38 38
60 55 58 63 65 67 68 67 67 66 65 63 60 57 54 53 54 55 58 58 59 60 57 52 48 47 49 43 35 31 29 26 25 25 25 24 25 26 27 27 29 31 32 33 32 30 31 32 32 32 32 31 30 30 29 27 26 26 27 27 27 27 27 27 27 28 29 30 31 32 32 32 32 32 33 32 32 33 34 35 36 37 37 38 39 40
68 64 63 60 58 62 64 64 65 63 61 59 59 57 53 52 53 54 57 58 60 61 57 55 52 48 48 44 36 29 25 24 25 25 26 27 28 28 27 26 26 29 30 30 31 31 31 31 32 32 31 31 31 30 29 28 28 27 28 28 28 28 28 28 28 29 30 31 32 33 34 34 34 35 35 34 34 34 34 35 36 37 38 39 39 40
71 72 69 63 59 61 62 64 67 65 59 56 58 59 56 54 56 57 60 61 62 62 59 58 56 51 47 44 39 32 28 27 27 26 27 30 30 29 29 28 27 27 28 28 29 29 29 30 30 30 30 32 33 31 30 29 30 29 28 28 28 28 28 29 30 31 32 32 33 34 35 36 36 37 36 36 35 36 36 36 37 38 38 39 40 41
70 73 74 72 68 66 64 64 68 69 65 60 61 64 63 62 64 64 65 65 64 63 61 60 59 54 47 44 43 38 34 33 31 28 28 29 31 31 31 30 28 28 28 28 28 27 26 26 26 26 26 28 30 30 30 30 30 30 30 30 30 30 31 32 33 33 33 34 34 35 36 37 38 38 38 38 38 38 38 38 39 39 40 40 40 41
70 74 77 76 72 68 65 61 61 65 66 64 65 65 65 66 66 65 65 64 62 60 59 58 59 56 49 45 44 43 39 36 33 30 28 29 31 32 33 32 30 29 29 29 28 27 26 25 25 25 24 24 25 26 26 26 27 27 28 29 30 32 33 34 34 34 34 34 35 36 37 38 39 40 40 40 40 40 40 40 41 41 41 41 41 41
69 72 75 75 74 71 68 62 59 62 63 65 66 65 64 64 62 62 62 62 60 59 59 60 60 58 52 48 46 46 43 37 33 32 30 30 31 32 33 33 33 32 30 28 28 27 27 26 26 27 26 25 25 25 25 25 25 26 26 27 28 30 31 31 32 33 33 34 35 36 37 39 40 41 42 42 42 42 42 42 42 42 43 43 43 43
67 67 68 70 73 72 70 66 64 64 64 66 69 71 70 66 62 62 63 64 64 64 64 63 62 59 56 52 48 46 44 38 33 32 32 32 32 33 33 34 34 33 30 29 28 27 27 26 26 26 27 26 25 25 25 25 26 26 26 27 27 28 29 29 29 31 32 33 34 35 36 38 40 41 42 43 44 44 44 44 44 43 44 44 45 45
60 61 64 66 68 68 66 64 63 64 65 66 68 69 69 67 64 62 62 64 65 67 67 65 63 60 57 54 50 46 45 39 33 31 32 33 33 33 34 34 33 32 31 30 29 29 28 27 26 26 26 25 24 24 23 24 24 24 25 25 26 26 27 27 28 29 30 31 32 33 35 36 38 40 42 43 45 46 46 46 46 46 46 46 47 47
59 59 63 66 68 68 68 66 64 64 65 66 66 65 65 65 65 64 63 64 65 66 67 66 64 62 59 55 50 46 44 40 35 31 31 33 34 33 34 35 34 33 32 31 30 29 28 27 27 26 26 25 24 24 23 23 22 22 22 23 23 24 25 26 27 28 29 30 31 32 33 35 36 38 41 43 45 46 47 48 49 49 50 49 49 49
66 63 64 66 68 71 72 71 70 66 63 63 64 66 67 66 64 64 63 62 63 65 66 65 65 63 59 56 52 48 45 41 38 35 32 32 33 33 33 33 34 33 31 30 30 29 29 28 27 27 27 26 25 24 24 23 22 21 22 22 23 24 24 25 26 27 28 29 30 32 32 34 35 37 38 40 42 44 46 48 50 51 52 52 53 53
65 64 63 65 68 72 75 75 72 68 65 63 62 65 70 71 70 67 64 63 64 65 66 68 68 64 60 57 54 50 45 40 41 40 36 32 32 33 33 33 33 33 32 31 30 30 30 29 29 28 27 26 25 25 24 24 24 24 25 25 26 26 26 26 27 27 28 29 30 31 32 33 35 36 38 39 41 42 44 46 48 50 52 53 54 55
61 62 63 65 69 71 73 72 68 67 66 64 63 63 65 70 73 72 70 69 68 68 69 70 70 67 63 59 55 50 42 39 41 41 37 34 33 34 35 34 34 34 34 33 32 32 31 30 29 28 28 27 27 27 26 26 27 27 27 27 27 27 27 27 27 28 29 30 31 32 33 34 35 36 38 39 41 42 44 45 47 49 51 52 54 55
60 62 63 66 68 69 70 70 68 67 66 64 65 65 62 64 68 69 70 70 68 67 67 68 70 68 63 59 55 49 42 39 40 41 39 37 35 35 37 37 36 34 33 33 32 32 31 29 29 28 28 28 28 28 29 29 30 30 29 29 28 27 27 28 28 29 30 31 32 33 34 35 36 37 38 39 40 41 43 44 46 48 50 52 53 55
59 64 67 66 67 69 71 71 69 67 67 66 67 66 65 64 64 63 64 65 66 67 65 67 70 68 64 60 55 50 46 42 41 42 41 40 38 38 38 38 37 35 33 31 31 31 30 29 29 28 28 29 30 31 31 31 31 31 30 30 29 29 29 29 30 30 31 32 33 33 35 36 37 38 39 40 41 42 43 44 46 47 49 50 52 54
59 64 69 70 69 72 74 74 74 73 70 67 65 65 65 63 62 62 60 61 66 68 67 70 70 67 66 64 59 54 52 47 43 42 42 42 42 40 37 36 36 35 33 32 31 30 30 29 29 30 30 31 32 32 32 32 31 31 30 30 29 30 30 31 31 31 32 33 34 34 35 37 38 39 41 42 44 45 46 47 48 48 49 50 52 54
61 64 70 73 74 76 77 76 76 73 69 66 62 61 62 61 61 62 60 63 66 65 67 71 70 67 68 67 64 61 58 52 45 41 42 44 44 41 38 35 34 35 35 34 32 31 31 31 31 32 33 33 33 33 33 33 33 31 31 30 30 31 31 31 32 32 33 34 34 35 36 38 39 41 42 44 46 47 48 50 51 51 52 53 54 55
62 64 68 71 73 72 72 72 72 70 69 67 62 60 60 62 63 62 62 65 63 61 66 68 65 66 67 67 67 65 63 59 48 40 42 45 43 42 40 39 38 37 37 37 35 35 34 34 34 35 35 34 34 34 34 34 33 33 32 33 33 33 33 33 34 34 34 34 35 36 37 39 40 41 43 45 47 49 50 52 53 54 55 55 56 57
61 62 63 67 70 69 69 71 73 74 70 64 60 61 63 64 65 66 66 64 61 62 67 63 60 63 65 65 68 66 64 61 49 41 44 45 43 43 43 43 43 42 40 38 36 36 37 37 37 37 36 35 35 35 35 34 34 34 34 35 36 36 36 36 35 35 36 36 37 38 39 40 41 42 44 45 47 49 50 51 53 53 54 55 56 57
60 60 59 61 66 69 71 70 71 73 71 64 60 62 64 66 67 66 64 61 59 62 61 55 55 60 60 59 61 61 60 58 49 45 48 48 46 46 46 47 48 46 42 39 37 37 38 39 38 38 37 36 36 36 36 35 36 36 37 37 37 37 37 37 37 37 38 39 40 41 41 42 43 43 44 46 47 48 49 50 51 52 53 54 54 55
58 58 56 57 60 65 69 69 69 71 72 70 65 62 63 65 65 64 61 57 57 58 54 50 53 56 54 53 54 55 58 59 53 50 52 53 51 49 48 49 50 47 43 40 39 40 40 40 39 38 38 37 37 38 38 38 38 38 38 38 37 37 37 37 37 38 39 40 41 41 42 43 43 44 45 46 47 48 49 49 50 50 51 52 53 53
57 56 54 54 56 60 63 65 67 68 70 70 67 64 63 64 64 63 61 57 55 55 50 49 54 54 53 52 51 52 56 59 58 54 54 56 54 49 47 47 47 44 42 41 42 42 41 41 41 40 40 39 39 39 39 38 38 37 37 36 36 36 36 37 38 38 39 40 40 41 42 43 44 45 45 46 47 47 47 48 48 48 49 49 51 52
56 55 54 53 55 57 58 60 64 66 66 68 68 65 64 65 65 63 59 55 54 52 49 50 54 51 49 49 49 49 51 54 55 54 52 54 52 46 44 44 43 42 43 43 43 43 43 43 42 42 42 41 40 39 38 37 36 36 35 35 35 36 36 37 37 38 39 39 40 41 42 43 44 45 46 46 46 46 47 47 48 48 49 49 50 51
56 54 53 53 54 54 54 57 61 64 69 73 72 67 64 63 62 60 57 54 53 52 51 53 52 46 44 46 45 45 47 49 50 50 49 50 50 45 42 41 42 43 43 44 44 45 45 44 44 43 41 40 38 37 37 36 35 34 34 35 36 37 37 38 38 39 39 40 40 41 42 43 43 44 44 45 46 46 47 48 48 49 50 50 51 52
58 56 54 53 53 53 53 53 56 65 73 72 67 63 62 61 60 59 58 55 54 54 53 51 47 44 45 46 44 43 46 48 49 50 50 52 52 47 41 40 42 42 42 44 45 46 45 44 43 41 40 38 38 38 37 35 34 34 35 36 37 37 37 38 38 39 39 40 40 41 41 41 41 41 42 42 43 44 45 47 48 48 50 51 52 53
61 60 57 55 55 54 54 54 59 65 65 61 59 60 59 58 58 58 58 57 57 56 52 48 44 43 45 45 42 41 43 46 48 51 52 55 55 50 44 43 43 42 42 44 46 46 45 43 42 40 39 39 39 38 37 35 35 35 36 36 37 37 37 38 39 39 39 39 39 39 39 38 38 39 39 40 42 43 45 46 47 48 49 50 51 53
59 60 60 58 57 56 57 61 64 61 55 54 58 60 59 58 58 59 58 56 53 50 48 45 43 44 45 45 43 41 42 45 49 51 53 54 55 51 46 44 45 44 45 47 48 47 45 43 41 39 39 40 39 37 36 35 35 35 35 35 36 38 39 40 39 39 39 38 38 38 38 38 38 39 41 42 44 45 47 48 49 49 50 51 52 53
53 55 58 59 60 59 59 61 60 58 57 56 54 53 55 55 54 56 55 51 47 47 47 45 43 43 43 41 41 41 42 46 52 53 52 51 52 50 46 45 47 46 47 48 47 45 43 41 39 39 39 38 37 35 34 33 33 33 34 36 38 39 39 40 40 39 39 38 39 39 39 40 41 43 45 46 47 47 48 49 49 50 51 52 53 54
48 49 51 55 57 59 61 60 58 61 62 56 49 47 47 47 49 53 55 54 52 51 49 45 40 39 39 39 41 42 44 50 55 53 49 49 50 47 44 45 48 48 46 45 43 42 41 40 38 37 37 36 34 33 33 32 32 34 35 37 38 38 38 38 38 39 39 40 40 41 42 43 44 45 46 46 46 46 46 47 48 49 51 52 53 54
46 47 46 49 52 54 57 59 59 62 59 51 45 45 47 50 53 55 59 60 57 53 50 46 40 39 40 42 43 45 50 55 54 49 46 46 44 41 41 46 49 47 45 43 41 40 39 37 36 36 35 34 33 32 32 32 33 34 35 37 37 37 37 37 38 39 40 42 42 43 43 43 43 43 42 42 42 43 44 45 46 47 49 50 50 51
47 49 46 47 50 52 54 57 58 58 54 48 45 45 49 53 52 56 62 59 49 47 49 45 39 38 39 42 43 47 52 53 48 44 43 41 39 39 43 47 48 47 44 42 40 39 37 35 35 36 35 33 32 32 32 33 33 34 36 37 38 38 38 38 39 40 41 41 42 42 41 41 40 40 39 40 40 41 42 43 44 45 46 47 47 47
48 51 50 48 48 50 54 56 57 54 49 46 45 46 49 51 52 57 59 49 40 41 43 41 39 39 41 44 45 47 49 47 45 45 44 41 41 44 46 47 47 46 44 41 39 38 36 36 36 35 34 33 33 33 32 33 33 35 37 38 38 39 39 40 40 40 40 40 40 40 39 38 38 39 39 40 40 41 42 42 43 44 45 45 45 44
49 49 51 50 49 50 52 53 54 54 50 46 47 50 51 53 55 56 51 44 43 43 40 41 43 45 46 47 46 46 45 44 46 49 48 46 45 46 46 46 46 45 44 41 40 38 37 36 37 36 36 35 35 33 32 33 34 36 37 38 38 39 40 41 41 40 40 39 38 38 38 39 40 40 41 41 41 42 42 43 44 44 44 44 44 43
55 51 51 51 50 50 51 52 54 55 52 48 50 53 54 55 55 52 47 47 48 46 44 46 47 47 49 49 46 45 46 46 49 51 51 49 48 47 47 47 46 45 44 43 41 39 38 38 39 39 38 37 35 33 33 34 35 36 37 37 37 38 40 41 41 40 39 39 39 39 40 40 41 42 42 43 43 43 44 44 44 45 45 45 45 44
64 59 52 48 48 50 52 56 57 55 51 50 49 50 52 52 50 47 46 47 47 46 47 48 47 47 48 47 45 45 46 46 48 50 51 51 49 48 49 48 46 45 44 42 41 40 40 41 42 41 40 38 35 34 34 35 35 36 36 35 35 37 38 39 39 39 39 39 40 40 41 41 42 43 43 44 45 45 45 46 46 46 46 46 46 46
66 59 52 48 48 48 50 53 54 54 53 52 50 50 51 51 47 45 45 46 46 46 47 49 49 48 47 44 43 44 44 44 45 48 49 48 49 50 49 46 44 43 42 42 42 42 43 44 43 42 41 39 36 36 37 37 37 36 36 35 35 36 37 37 37 38 39 40 40 40 41 41 42 43 44 45 46 46 47 47 46 46 46 46 47 47
67 61 57 52 47 45 47 49 52 54 56 55 53 53 54 52 48 46 46 47 48 47 48 49 49 48 47 45 43 44 44 43 43 45 46 47 49 49 46 44 43 44 44 45 46 47 47 46 44 43 42 40 39 39 39 39 38 37 36 35 35 36 36 36 37 37 38 39 40 40 41 41 42 44 45 46 47 47 48 47 47 46 46 46 46 47
70 66 63 57 49 45 46 47 49 52 56 57 57 56 54 53 51 50 49 48 48 48 49 50 49 48 48 46 45 45 44 43 43 46 47 47 48 46 44 44 46 47 48 49 50 50 48 46 45 45 44 43 42 41 41 41 40 39 38 37 37 36 36 37 38 39 40 40 41 41 42 42 44 45 45 46 48 49 49 49 48 48 47 47 47 47
66 64 63 59 53 46 41 42 45 49 53 56 58 57 55 54 54 53 51 51 49 48 48 49 48 47 47 47 47 45 43 42 43 45 46 47 48 47 47 48 49 49 51 51 51 50 49 48 48 49 48 46 44 43 43 43 41 40 41 40 40 39 38 39 41 42 43 43 43 44 44 44 45 45 46 47 48 49 50 49 49 49 48 48 49 49
63 61 57 55 54 47 40 41 45 47 51 55 59 60 58 56 56 54 53 53 51 49 48 47 46 45 46 46 46 45 43 42 42 43 45 47 49 49 49 50 51 52 53 52 51 50 50 51 52 52 51 48 46 45 45 44 42 43 44 44 44 43 43 43 44 45 46 45 45 46 46 46 46 46 47 48 49 50 50 50 49 49 49 49 49 49
66 64 57 53 53 45 36 38 43 46 49 54 57 58 57 55 56 55 53 52 51 50 48 44 40 39 41 43 45 45 45 46 47 47 48 48 48 49 50 51 53 54 53 52 52 52 53 55 56 54 52 49 47 47 47 46 45 46 46 47 48 48 47 47 47 47 48 47 47 48 47 47 48 48 49 49 50 50 50 49 49 49 49 49 49 49
70 69 63 59 54 42 32 36 43 47 49 51 52 52 52 53 54 54 52 52 52 51 47 40 35 35 37 41 44 46 47 48 50 51 51 51 51 52 52 54 56 55 54 54 54 55 57 58 57 54 52 49 48 49 48 47 47 48 49 50 51 51 50 50 49 49 49 49 49 49 49 49 50 50 50 50 51 51 50 50 50 51 50 50 50 51
Wind_Direction
223 222 221 220 220 225 230 233 233 233 232 232 233 234 235 235 234 235 236 236 236 238 239 241 240 237 239 244 244 243 244 246 246 246 248 250 249 245 246 251 252 250 249 252 257 260 260 260 261 264 266 266 266 265 260 253 249 248 249 252 253 251 250 248 248 249 250 250 248 246 244 243 243 244 247 250 255 261 267 271 274 275 276 276 277 279
225 224 221 219 221 225 232 235 236 238 238 235 235 236 237 238 238 237 239 238 237 238 239 241 241 238 238 242 244 243 244 246 247 248 248 248 251 251 245 246 252 252 249 252 257 259 260 261 261 262 264 266 266 265 264 261 257 254 253 254 252 250 251 251 250 250 251 252 252 251 250 250 250 250 250 253 258 265 271 273 272 272 274 276 279 281
224 223 220 220 222 225 230 234 235 238 238 236 235 236 237 238 239 239 239 238 237 238 240 241 243 240 238 240 243 244 246 249 248 246 246 246 250 255 253 245 247 253 254 255 257 258 260 261 260 260 262 264 263 264 266 265 261 256 253 254 254 252 249 252 254 253 253 253 255 256 255 255 255 255 255 255 260 267 270 270 270 271 274 279 282 284
223 221 219 221 222 224 227 232 233 232 234 235 234 235 236 237 239 240 240 240 238 237 239 241 243 241 238 238 242 244 246 249 249 246 245 246 250 258 261 249 243 251 257 257 258 260 262 262 261 259 257 258 260 262 264 264 263 260 256 256 258 257 252 250 252 254 255 255 256 257 257 257 257 257 258 259 262 265 267 269 272 276 279 282 285 285
223 220 222 224 224 224 226 229 231 231 233 235 235 235 237 237 239 242 243 243 241 238 238 241 243 241 239 238 238 242 245 247 250 249 246 246 251 257 260 252 244 248 255 258 258 258 262 263 261 258 256 257 261 263 262 262 262 262 262 261 261 262 260 255 253 254 255 257 257 257 258 259 258 259 260 263 265 266 268 271 274 278 281 283 284 284
223 220 222 224 225 226 226 228 231 234 235 236 237 238 239 239 241 243 245 246 245 242 239 241 244 242 239 239 238 240 245 247 249 250 248 248 252 255 257 256 251 248 251 255 257 255 257 261 260 259 260 261 261 261 260 259 259 262 263 264 264 264 265 264 261 260 260 260 260 260 260 260 261 262 264 265 266 268 270 273 275 278 280 281 283 283
224 222 222 222 224 226 227 227 229 234 236 236 238 240 242 242 244 246 247 248 249 246 243 242 245 244 240 239 241 241 244 247 248 249 250 251 254 256 256 256 254 251 250 251 254 255 254 258 260 261 262 262 261 260 259 259 261 263 264 264 265 264 266 267 267 266 265 265 264 263 261 261 262 263 264 265 267 269 271 273 275 277 278 279 280 280
225 224 223 223 224 225 226 226 226 231 235 236 236 238 242 242 244 247 248 249 250 249 247 244 245 247 243 238 242 244 244 246 247 249 252 253 254 255 255 256 255 254 253 251 253 255 255 255 258 260 260 261 262 260 260 261 262 262 262 263 264 265 266 268 269 268 267 267 266 266 264 264 263 263 263 264 265 268 271 273 275 276 277 277 277 277
226 226 225 225 225 226 225 226 227 229 233 235 236 238 241 242 243 247 249 249 249 250 248 244 244 248 246 240 241 245 243 243 245 248 253 256 257 256 255 256 256 256 255 255 255 257 257 254 254 255 256 258 260 262 263 263 260 259 261 263 265 266 267 266 267 269 269 270 269 269 269 268 266 265 265 265 266 267 270 271 273 274 275 275 275 276
229 228 227 227 228 227 227 228 229 231 233 235 238 239 240 242 243 245 247 248 249 249 248 246 246 249 248 242 238 241 243 244 246 247 250 255 260 262 260 257 257 256 256 257 257 260 260 255 250 250 252 255 258 261 263 263 261 260 261 263 264 264 265 265 266 268 270 271 271 271 271 270 269 268 267 267 268 268 269 270 271 272 272 273 275 276
230 230 231 231 229 228 230 232 233 235 237 237 239 239 238 241 243 245 247 249 251 249 248 248 249 249 247 240 233 235 240 244 248 251 253 254 256 260 261 260 259 258 258 258 258 259 260 257 252 250 253 257 259 260 261 262 263 262 259 260 261 262 264 266 268 269 269 270 271 273 273 272 271 270 270 270 270 270 271 272 272 273 273 274 274 275
231 231 232 232 230 230 233 234 235 237 239 240 241 240 239 241 243 245 247 249 249 247 247 248 249 247 244 240 235 232 235 241 248 254 256 254 254 255 258 259 260 260 260 259 258 257 256 256 255 254 255 258 260 260 259 259 260 260 258 258 259 262 265 267 270 271 271 271 272 273 274 274 273 273 273 273 273 274 274 274 274 274 275 275 275 275
233 233 234 232 230 231 233 235 235 235 236 238 239 239 239 240 242 243 245 246 247 246 246 248 249 247 242 243 247 242 237 240 245 252 255 255 256 257 257 257 257 259 260 260 259 256 255 255 256 256 256 257 259 260 260 259 258 259 260 260 261 263 265 268 272 274 275 274 274 273 274 274 274 275 275 275 276 275 276 276 276 276 276 275 275 275
233 234 234 234 233 232 233 235 235 235 234 234 236 237 237 238 240 241 242 243 244 245 246 249 252 248 242 245 252 251 245 242 245 250 253 255 257 257 257 257 255 255 257 259 259 258 257 256 257 258 258 258 259 260 261 261 260 261 261 263 264 265 266 269 272 275 276 277 277 276 276 276 276 276 275 275 275 275 275 275 276 276 276 277 277 276
234 235 234 234 235 236 236 237 237 237 238 238 239 241 240 240 241 242 244 245 246 248 250 253 254 249 243 244 250 253 251 248 250 252 250 251 254 255 256 256 255 253 253 256 258 260 260 259 259 260 261 260 261 261 262 262 263 263 263 264 264 266 268 270 272 275 277 278 278 278 279 279 278 277 275 275 274 274 274 274 274 275 276 278 278 278
231 235 236 236 237 238 238 238 238 236 235 236 237 239 240 242 243 245 247 248 249 250 249 250 250 247 244 242 246 251 253 252 252 253 252 251 251 254 256 257 257 256 255 255 257 260 262 262 262 263 264 264 263 262 263 263 263 264 264 265 266 267 269 271 274 276 277 277 277 277 279 279 279 278 277 276 275 274 274 275 275 276 277 278 278 278
228 232 235 235 235 236 236 236 237 235 235 235 235 235 237 240 241 242 244 245 246 247 246 246 245 245 245 244 243 249 254 256 254 252 253 253 251 253 256 257 258 259 259 259 259 260 262 262 263 264 265 265 264 263 262 262 262 263 264 264 265 267 269 271 273 274 275 275 276 277 278 278 279 279 279 278 277 276 276 276 276 276 276 277 277 278
228 231 233 232 232 232 232 234 235 236 236 237 236 236 237 239 239 239 240 242 243 244 244 244 244 244 245 245 245 249 255 258 258 254 253 254 253 254 255 258 261 261 261 260 259 260 260 261 262 262 263 264 264 265 264 263 264 265 266 267 267 268 269 270 271 272 274 275 276 276 277 278 280 280 281 281 281 280 279 279 278 277 276 276 276 277
229 232 233 231 230 228 228 230 232 233 234 237 238 238 239 240 241 240 240 242 244 245 244 244 244 245 244 244 246 250 255 259 261 258 254 254 255 255 255 258 260 261 261 260 260 260 261 261 261 261 262 263 264 266 266 267 267 268 269 270 271 272 273 274 275 276 277 278 278 278 278 279 280 281 282 282 283 283 282 282 281 280 279 278 278 277
232 234 233 231 230 229 228 230 231 231 232 234 235 236 237 239 241 242 243 245 246 248 247 247 247 246 244 245 248 250 252 256 259 258 255 253 255 256 256 257 259 260 261 260 260 260 260 261 261 261 262 263 263 263 264 265 267 269 270 272 274 276 277 279 280 281 281 281 282 282 282 281 281 281 281 281 282 282 282 282 282 282 281 281 280 279
231 232 231 230 231 230 230 231 233 234 234 234 234 235 236 236 237 239 240 241 243 245 246 246 246 244 243 244 246 248 251 253 256 257 257 254 255 257 257 257 258 260 261 261 261 260 259 259 260 261 261 261 261 261 262 264 266 268 271 273 275 277 279 281 283 284 285 286 287 286 285 283 283 282 282 282 281 281 281 281 281 282 282 282 282 282
227 229 230 230 231 232 232 233 235 237 238 238 239 240 240 239 237 237 237 237 238 240 242 244 244 241 241 243 245 247 250 252 255 258 259 257 255 257 258 258 258 258 258 259 259 259 259 258 258 259 260 261 262 263 265 266 268 269 270 272 274 276 279 282 285 288 289 290 290 289 288 287 286 285 284 283 282 281 281 281 281 282 282 283 283 282
229 231 231 231 232 234 234 234 234 235 235 237 239 239 239 240 239 239 240 241 242 243 244 247 247 244 244 247 249 251 253 253 255 258 258 257 255 255 257 257 257 255 255 256 257 258 259 259 259 258 259 261 263 264 266 268 269 271 272 274 277 279 282 285 288 290 291 290 290 289 288 287 287 286 285 284 282 281 280 279 279 280 280 281 282 282
229 231 232 232 234 235 235 234 232 233 234 234 234 235 235 238 240 241 242 244 245 245 245 248 249 245 246 249 252 254 255 253 253 255 256 257 256 254 253 254 255 255 254 254 255 256 258 259 260 261 262 264 264 265 265 266 268 270 273 276 280 283 286 288 290 290 290 290 288 287 286 285 285 285 284 284 283 282 281 280 279 279 279 280 280 281
230 231 231 231 232 232 233 234 231 230 231 232 232 233 235 237 239 239 240 241 243 243 242 245 246 244 245 248 249 250 252 250 248 250 253 256 257 254 250 249 251 253 253 253 254 255 256 259 261 264 266 267 267 266 266 267 268 270 273 276 280 283 285 287 288 288 288 288 287 286 286 285 285 285 285 285 284 284 283 282 281 281 280 280 280 281
232 233 231 229 230 230 231 233 232 230 231 233 233 233 236 238 239 240 240 241 242 243 243 244 244 243 244 247 248 248 249 248 247 248 251 254 255 254 253 250 249 251 253 255 256 257 258 260 263 265 266 266 266 266 268 270 271 273 275 277 279 280 281 282 283 284 284 284 284 284 285 285 285 285 286 286 286 285 285 284 283 282 282 281 281 281
231 233 231 230 231 233 235 237 238 235 233 233 234 234 235 236 238 238 238 240 242 243 244 244 244 244 244 247 249 250 250 249 247 246 249 251 252 254 256 256 254 254 255 256 257 259 261 262 263 264 264 265 265 266 268 271 273 276 278 279 280 281 282 282 282 282 282 282 282 282 283 283 284 284 284 284 285 285 286 285 285 284 284 283 283 283
228 232 232 230 231 233 235 237 238 237 235 233 235 236 235 234 235 234 235 237 238 239 240 241 242 242 242 244 247 249 251 252 251 248 249 250 251 253 255 257 257 257 257 256 256 258 260 262 263 264 264 265 266 268 269 271 273 275 277 279 281 283 284 284 283 282 282 282 282 283 283 282 281 281 281 281 282 283 284 285 286 286 286 287 286 286
227 230 231 231 231 232 233 235 236 236 234 234 237 238 237 237 238 239 241 241 242 242 243 243 245 244 241 242 247 249 251 253 253 250 250 250 252 253 253 254 255 256 256 255 256 258 260 262 262 263 264 265 266 267 268 270 271 274 277 279 281 282 282 282 282 282 283 284 284 284 284 283 283 282 281 281 282 282 283 284 285 286 287 287 288 288
226 228 229 231 231 231 233 234 234 235 234 233 235 236 237 239 241 243 245 246 248 250 249 248 249 247 242 242 245 247 249 251 250 248 249 251 251 249 247 249 251 253 253 254 257 260 262 262 262 262 262 263 264 265 267 269 271 274 277 278 278 279 279 280 281 282 283 284 285 285 285 284 284 284 284 283 283 284 285 285 286 287 287 287 287 287
224 225 227 229 230 231 232 232 232 233 233 234 234 234 235 238 239 240 241 242 244 248 246 244 246 243 239 240 242 241 245 248 249 248 248 250 248 244 242 246 249 251 253 255 258 260 261 261 261 260 261 261 263 264 267 269 271 272 273 273 274 276 277 278 280 281 282 283 284 284 284 285 285 285 284 284 285 285 286 287 287 287 287 287 287 286
225 225 225 226 229 231 231 232 232 232 234 235 235 234 235 236 237 238 239 240 244 248 247 245 243 239 238 242 243 243 244 247 250 250 250 251 251 249 246 247 249 251 254 257 259 260 259 258 258 258 260 262 264 266 267 268 268 268 269 270 272 274 276 278 279 280 281 282 283 283 283 284 284 285 285 286 287 288 289 289 289 288 288 287 287 286
225 227 226 225 228 229 229 231 233 234 236 237 236 236 237 238 238 239 240 242 246 249 249 248 245 241 243 246 246 246 246 247 249 250 250 252 254 253 250 247 248 251 254 256 258 258 257 256 257 258 261 263 264 264 264 264 265 266 268 270 272 274 276 278 280 281 282 283 283 283 284 285 286 287 288 289 290 290 291 291 291 290 290 289 289 289
223 225 227 227 228 229 229 231 234 236 237 236 236 237 238 239 239 240 241 244 246 247 248 249 247 244 245 245 242 241 243 243 245 246 245 247 249 250 247 244 245 248 250 253 254 254 254 254 257 259 260 261 261 261 261 262 264 267 270 272 274 277 279 281 283 284 284 285 286 286 287 288 288 289 290 290 290 290 290 290 291 291 291 292 291 291
221 222 224 227 228 230 231 232 235 237 236 234 233 234 235 236 238 239 241 243 245 246 248 248 245 243 244 243 240 239 239 240 242 242 242 242 244 246 244 242 243 244 247 250 252 252 253 254 255 257 258 258 259 258 259 262 265 269 273 276 279 282 284 286 287 287 287 288 288 288 288 288 288 288 289 289 289 290 290 291 291 291 291 291 291 291
221 221 222 224 226 229 233 235 236 238 237 234 233 233 233 234 235 236 238 239 240 242 244 242 238 238 240 238 236 236 235 236 239 240 240 240 241 242 243 243 243 244 245 247 249 250 251 253 254 255 255 255 256 257 260 264 269 273 277 280 283 286 288 289 289 289 288 287 287 287 286 286 287 287 288 289 289 290 290 290 289 289 289 289 288 288
219 220 222 224 225 227 231 236 239 240 240 237 234 234 236 237 238 240 242 242 241 242 243 241 238 240 242 240 239 241 240 238 237 237 239 242 242 243 244 245 244 244 244 245 247 249 251 252 252 252 252 253 256 259 264 268 272 276 280 283 287 289 290 291 291 290 288 287 287 286 286 287 288 289 289 289 289 289 288 288 288 287 288 288 288 287
216 217 220 224 226 227 230 234 237 239 239 235 234 236 239 240 241 244 246 244 241 242 244 244 243 244 243 241 241 243 243 240 237 235 239 244 246 246 246 247 246 245 244 245 247 249 251 251 250 250 252 255 259 262 266 269 273 278 283 287 290 291 291 291 291 290 289 289 288 288 288 288 289 289 290 289 289 289 289 289 289 289 290 290 291 291
217 215 217 222 226 228 231 233 235 237 235 232 235 239 242 243 243 245 246 242 238 239 242 241 238 237 236 237 239 241 241 239 236 234 237 242 245 246 245 246 248 248 247 247 248 248 248 248 248 250 253 256 260 263 266 271 277 282 286 289 291 291 290 290 289 289 289 290 290 290 290 291 290 290 291 291 291 291 291 291 292 292 292 293 294 294
221 217 216 220 223 226 230 233 236 236 232 230 234 239 241 243 244 245 245 242 239 240 243 242 241 240 241 243 244 243 242 239 238 237 239 241 242 241 242 244 246 249 249 248 247 246 247 248 249 252 254 256 259 262 268 274 280 285 288 289 289 289 290 290 290 291 291 292 292 293 293 293 293 293 294 294 294 294 293 293 292 292 292 293 293 294
224 221 219 219 220 223 227 231 234 234 230 228 231 234 238 241 242 242 242 240 240 242 242 242 243 242 243 243 243 242 240 241 242 242 241 241 239 238 240 243 245 247 247 246 245 245 247 249 251 253 254 255 258 263 271 277 282 285 287 288 289 290 291 292 292 292 293 293 293 294 295 295 295 295 295 295 295 293 292 291 291 291 291 292 293 294
226 225 223 221 219 220 223 228 231 228 222 222 226 229 233 237 240 241 242 241 241 239 236 235 236 236 237 238 237 237 239 242 245 243 241 240 238 237 239 240 241 243 244 244 244 245 248 250 251 252 252 254 258 266 273 278 281 284 287 289 291 292 293 292 292 291 292 293 293 294 294 295 295 295 295 294 293 292 291 291 291 291 291 292 293 293
232 230 227 224 222 223 223 225 228 223 217 219 224 227 230 235 239 241 240 239 238 236 233 232 232 234 237 236 235 236 239 242 244 242 241 240 236 234 235 236 237 240 241 243 244 245 247 249 249 249 250 254 260 267 272 276 278 281 285 288 290 291 291 291 290 290 291 291 292 292 293 294 294 294 294 294 294 293 293 292 292 292 291 291 291 292
235 234 231 226 225 228 227 227 228 224 220 221 226 228 232 236 238 240 239 237 234 233 233 233 231 232 235 235 235 236 238 240 240 238 239 239 235 232 233 233 235 237 239 242 244 244 245 246 246 248 251 255 261 266 270 272 275 278 282 284 285 286 287 288 289 288 288 289 289 291 292 293 294 294 295 295 294 294 294 293 293 292 291 291 291 291
234 234 235 232 230 232 232 230 230 227 223 222 226 231 236 239 239 238 238 235 232 230 234 236 233 229 228 229 231 234 235 236 236 236 237 237 235 233 232 232 233 236 238 241 243 243 243 244 245 248 253 257 261 265 267 269 271 274 277 278 279 281 284 285 286 286 286 286 287 288 290 292 293 293 293 293 293 293 293 292 291 290 289 289 289 290
233 234 236 237 236 234 232 229 229 228 224 222 225 230 235 238 238 236 234 233 231 229 232 235 233 228 226 227 228 230 232 234 235 235 235 236 236 236 234 232 233 236 238 240 241 242 243 244 246 250 253 256 260 263 265 266 268 270 272 272 274 278 281 282 283 284 284 284 284 285 287 288 289 289 290 290 291 291 290 290 290 289 289 288 289 289
233 235 236 237 238 236 230 227 228 229 226 223 225 228 230 233 236 234 232 231 232 230 231 233 232 228 227 226 225 226 230 233 233 233 233 234 236 236 235 233 234 235 237 239 241 242 243 244 247 250 251 254 258 261 263 264 265 267 268 268 269 272 275 277 278 279 280 281 282 282 283 283 284 285 287 288 289 289 290 290 290 290 290 290 290 290
231 234 236 237 239 237 230 225 227 229 227 225 226 228 228 229 231 231 229 229 230 231 231 233 234 232 229 228 226 226 229 233 234 235 234 234 235 235 234 235 236 237 239 240 242 243 243 245 247 249 251 254 257 259 261 262 263 264 265 265 266 267 269 271 273 274 276 278 279 279 280 281 282 283 285 286 287 287 288 289 289 290 290 290 290 290
226 228 230 233 236 234 227 222 224 226 226 225 226 228 228 227 226 227 227 227 228 229 230 232 234 234 232 230 230 230 231 233 235 236 235 233 233 234 235 237 238 239 240 242 243 243 243 245 248 249 251 254 257 260 261 262 263 263 264 264 264 265 266 268 270 272 274 275 276 278 279 281 282 283 284 285 285 286 287 288 289 290 290 289 289 289
225 226 227 230 232 230 224 221 222 224 225 225 226 227 226 225 225 226 227 226 226 227 227 227 228 230 231 232 232 231 231 231 232 234 234 234 234 235 237 238 239 240 242 243 243 243 244 247 249 251 253 256 258 261 262 263 263 264 265 265 265 266 267 268 270 271 273 275 276 278 280 281 282 283 284 285 286 287 288 289 289 289 288 288 288 288
226 227 229 230 230 227 224 224 222 221 222 224 226 227 227 226 226 226 225 225 225 226 226 226 225 226 228 231 233 233 232 231 232 233 235 236 236 237 238 239 240 241 243 244 243 243 244 248 251 253 255 258 260 261 262 263 264 265 267 267 267 268 269 270 271 273 275 276 278 279 280 281 282 283 284 285 286 287 288 289 289 289 289 289 289 290
Height
5763 5765 5768 5778 5787 5792 5793 5795 5797 5799 5802 5805 5808 5811 5814 5817 5821 5824 5825 5827 5829 5829 5830 5831 5833 5839 5844 5844 5845 5845 5845 5848 5850 5852 5854 5855 5856 5857 5860 5861 5861 5863 5863 5863 5865 5868 5869 5870 5871 5871 5872 5873 5873 5873 5873 5874 5874 5874 5875 5875 5875 5876 5877 5878 5878 5879 5879 5880 5880 5880 5881 5881 5881 5882 5883 5883 5884 5884 5884 5884 5883 5882 5881 5881 5881 5880
5756 5757 5767 5780 5786 5788 5790 5792 5794 5796 5799 5803 5806 5808 5811 5813 5817 5820 5821 5823 5826 5826 5827 5828 5829 5835 5840 5841 5842 5842 5842 5845 5849 5850 5851 5852 5852 5854 5857 5859 5859 5860 5860 5861 5863 5865 5866 5867 5869 5870 5870 5871 5871 5871 5872 5872 5873 5873 5873 5873 5873 5874 5875 5875 5876 5877 5877 5877 5877 5878 5879 5879 5880 5880 5881 5882 5882 5882 5882 5882 5881 5880 5879 5878 5878 5878
5746 5754 5770 5780 5781 5783 5785 5787 5789 5791 5794 5799 5802 5804 5806 5809 5812 5814 5816 5819 5821 5822 5823 5825 5825 5830 5836 5838 5839 5840 5840 5843 5845 5846 5847 5849 5849 5851 5854 5857 5857 5857 5858 5860 5861 5862 5863 5865 5866 5867 5868 5868 5868 5869 5870 5870 5871 5871 5871 5870 5870 5872 5873 5873 5873 5874 5874 5875 5875 5876 5877 5878 5878 5878 5879 5880 5880 5881 5880 5878 5878 5877 5877 5876 5876 5876
5745 5760 5774 5776 5775 5777 5779 5781 5783 5786 5789 5793 5797 5799 5802 5806 5807 5809 5811 5813 5816 5819 5820 5821 5821 5826 5832 5834 5836 5837 5838 5839 5840 5842 5844 5846 5847 5849 5851 5853 5854 5855 5856 5858 5859 5860 5861 5862 5863 5864 5865 5865 5865 5867 5867 5867 5867 5868 5868 5868 5868 5869 5871 5871 5871 5871 5871 5872 5873 5874 5875 5875 5876 5876 5876 5877 5878 5878 5877 5876 5875 5875 5875 5875 5874 5874
5751 5766 5770 5769 5770 5771 5772 5775 5777 5781 5785 5788 5793 5796 5799 5802 5804 5805 5807 5808 5811 5814 5816 5818 5817 5821 5827 5830 5832 5834 5834 5836 5838 5838 5841 5843 5844 5846 5847 5849 5852 5854 5855 5855 5856 5858 5858 5859 5860 5861 5862 5862 5863 5864 5865 5865 5864 5865 5866 5866 5866 5867 5867 5868 5869 5869 5869 5869 5870 5871 5872 5872 5873 5874 5874 5875 5875 5874 5874 5874 5874 5873 5873 5873 5872 5871
5750 5758 5759 5762 5763 5763 5767 5771 5775 5779 5782 5785 5790 5794 5797 5800 5801 5802 5803 5803 5806 5809 5812 5815 5814 5816 5823 5826 5829 5831 5831 5833 5835 5835 5837 5840 5841 5843 5844 5846 5849 5851 5852 5853 5853 5855 5855 5856 5857 5858 5859 5860 5861 5861 5861 5862 5862 5863 5864 5864 5865 5865 5865 5865 5866 5866 5866 5867 5867 5868 5869 5869 5870 5871 5871 5872 5871 5870 5870 5871 5871 5871 5871 5870 5869 5869
5742 5748 5753 5754 5754 5758 5763 5767 5773 5777 5779 5782 5789 5793 5795 5797 5798 5798 5800 5800 5800 5804 5809 5812 5811 5812 5818 5824 5826 5828 5828 5830 5832 5832 5834 5837 5837 5839 5841 5843 5845 5847 5849 5850 5850 5851 5853 5854 5854 5856 5857 5857 5858 5858 5857 5858 5860 5861 5861 5861 5862 5862 5862 5863 5863 5864 5864 5864 5865 5865 5866 5866 5867 5868 5868 5867 5867 5867 5867 5867 5867 5868 5868 5867 5867 5866
5735 5742 5745 5746 5750 5754 5757 5763 5771 5774 5775 5780 5788 5791 5791 5793 5794 5793 5795 5796 5796 5799 5804 5809 5810 5808 5813 5822 5824 5824 5826 5827 5829 5830 5831 5833 5834 5835 5837 5839 5841 5843 5844 5846 5847 5847 5849 5851 5852 5853 5853 5854 5854 5854 5854 5856 5857 5857 5858 5858 5859 5860 5860 5860 5860 5860 5861 5861 5862 5862 5862 5863 5864 5864 5864 5863 5863 5864 5863 5863 5863 5863 5863 5863 5863 5862
5734 5737 5740 5744 5748 5750 5756 5764 5768 5770 5772 5777 5783 5786 5787 5787 5788 5789 5790 5792 5792 5793 5797 5804 5808 5806 5808 5818 5823 5821 5822 5824 5826 5828 5828 5829 5831 5832 5834 5835 5837 5839 5840 5842 5843 5844 5845 5847 5849 5849 5849 5850 5850 5851 5852 5853 5853 5853 5854 5855 5856 5857 5857 5858 5858 5858 5858 5858 5858 5859 5860 5860 5860 5860 5860 5860 5860 5860 5860 5860 5859 5859 5859 5858 5858 5858
5729 5734 5740 5741 5742 5748 5756 5760 5761 5765 5768 5772 5776 5780 5782 5781 5783 5785 5784 5786 5788 5788 5792 5800 5806 5804 5802 5811 5819 5818 5819 5823 5824 5825 5825 5827 5828 5829 5830 5832 5833 5834 5836 5838 5839 5840 5841 5842 5844 5845 5845 5846 5847 5847 5848 5849 5850 5850 5852 5852 5853 5853 5853 5854 5855 5855 5855 5855 5854 5855 5856 5857 5857 5857 5857 5856 5857 5857 5856 5856 5856 5855 5854 5854 5854 5853
5723 5731 5731 5730 5735 5745 5750 5752 5756 5760 5762 5766 5769 5773 5776 5777 5779 5781 5781 5783 5783 5784 5790 5797 5801 5802 5798 5803 5814 5816 5818 5821 5822 5823 5824 5825 5826 5826 5826 5828 5829 5830 5831 5833 5835 5836 5836 5837 5839 5840 5841 5843 5844 5844 5845 5845 5847 5847 5848 5849 5849 5850 5850 5850 5851 5851 5852 5852 5851 5851 5852 5852 5853 5853 5853 5853 5853 5853 5852 5852 5852 5851 5850 5850 5850 5849
5717 5720 5718 5724 5735 5740 5741 5746 5750 5752 5756 5761 5763 5767 5772 5774 5776 5778 5778 5779 5779 5781 5788 5791 5794 5798 5796 5797 5808 5815 5818 5819 5820 5820 5821 5821 5821 5822 5824 5825 5826 5826 5827 5829 5831 5832 5833 5833 5835 5837 5838 5839 5839 5840 5841 5842 5843 5843 5844 5845 5845 5846 5847 5847 5847 5848 5848 5848 5848 5848 5848 5848 5848 5848 5849 5849 5850 5849 5849 5849 5848 5847 5847 5846 5846 5845
5711 5712 5716 5724 5729 5731 5735 5739 5742 5745 5751 5754 5756 5762 5767 5769 5771 5772 5772 5774 5775 5779 5783 5784 5786 5792 5795 5797 5803 5811 5815 5816 5816 5817 5817 5817 5818 5819 5820 5822 5823 5823 5824 5825 5826 5828 5829 5830 5831 5833 5834 5835 5835 5836 5837 5838 5839 5839 5840 5841 5842 5843 5843 5843 5844 5844 5844 5845 5845 5845 5845 5844 5844 5844 5845 5845 5845 5845 5845 5844 5844 5843 5843 5842 5842 5841
5706 5709 5712 5715 5718 5723 5727 5730 5734 5740 5746 5751 5753 5757 5761 5763 5762 5763 5766 5768 5771 5776 5778 5779 5780 5785 5793 5797 5798 5804 5809 5811 5812 5814 5815 5815 5815 5815 5816 5818 5820 5820 5820 5821 5822 5824 5825 5826 5828 5829 5830 5831 5831 5832 5833 5834 5835 5836 5837 5837 5838 5839 5839 5839 5840 5840 5841 5841 5841 5841 5841 5840 5840 5840 5840 5840 5840 5840 5840 5840 5839 5839 5838 5838 5837 5837
5702 5700 5702 5709 5716 5721 5725 5730 5738 5743 5747 5752 5754 5755 5755 5755 5756 5760 5763 5766 5770 5774 5775 5774 5774 5780 5790 5795 5795 5797 5802 5806 5808 5810 5811 5811 5811 5811 5812 5813 5815 5817 5817 5818 5819 5820 5822 5823 5824 5825 5827 5828 5829 5829 5830 5830 5831 5832 5833 5833 5834 5835 5835 5835 5836 5836 5837 5837 5837 5837 5837 5836 5836 5835 5835 5835 5835 5835 5835 5834 5834 5834 5833 5833 5833 5832
5696 5695 5701 5711 5716 5720 5725 5731 5737 5738 5739 5743 5746 5746 5746 5750 5755 5760 5762 5764 5767 5768 5767 5768 5771 5777 5785 5790 5792 5792 5795 5800 5804 5805 5806 5807 5808 5808 5808 5810 5811 5813 5814 5815 5816 5817 5818 5820 5821 5822 5823 5824 5825 5826 5827 5827 5828 5828 5829 5829 5830 5830 5830 5831 5831 5832 5832 5832 5832 5832 5832 5832 5831 5831 5831 5831 5830 5830 5829 5829 5829 5829 5828 5828 5827 5826
5692 5694 5701 5708 5711 5716 5722 5727 5729 5730 5732 5735 5735 5735 5740 5746 5751 5754 5755 5757 5758 5757 5759 5764 5769 5775 5779 5783 5788 5789 5790 5795 5799 5801 5802 5803 5804 5805 5805 5806 5807 5809 5811 5812 5813 5814 5815 5816 5817 5818 5819 5820 5821 5822 5823 5823 5824 5824 5825 5825 5826 5826 5826 5827 5827 5827 5827 5827 5827 5827 5827 5827 5827 5826 5826 5826 5826 5826 5825 5825 5825 5824 5823 5823 5822 5821
5691 5694 5697 5702 5706 5713 5720 5722 5723 5724 5726 5727 5727 5732 5740 5742 5742 5746 5748 5748 5749 5751 5755 5761 5766 5771 5774 5778 5784 5787 5787 5790 5795 5797 5798 5798 5800 5801 5802 5802 5804 5806 5807 5809 5810 5811 5812 5813 5814 5815 5815 5816 5817 5818 5819 5819 5820 5821 5821 5821 5822 5822 5822 5822 5822 5822 5822 5822 5822 5822 5822 5822 5822 5822 5822 5822 5822 5821 5821 5821 5820 5820 5819 5818 5817 5816
5686 5689 5691 5695 5700 5707 5710 5711 5711 5713 5717 5720 5725 5733 5737 5734 5735 5740 5742 5744 5748 5749 5752 5758 5761 5764 5769 5775 5780 5784 5785 5787 5790 5792 5793 5795 5796 5797 5798 5799 5800 5802 5803 5805 5806 5807 5808 5809 5810 5811 5812 5812 5813 5814 5815 5815 5816 5817 5817 5817 5818 5818 5818 5818 5818 5818 5818 5818 5818 5818 5818 5818 5818 5817 5817 5817 5816 5816 5816 5815 5815 5814 5814 5813 5812 5811
5680 5683 5686 5690 5695 5699 5700 5699 5700 5705 5710 5714 5721 5726 5727 5728 5731 5736 5740 5745 5747 5747 5750 5753 5754 5759 5767 5773 5776 5779 5782 5785 5786 5786 5788 5791 5792 5793 5795 5796 5796 5798 5799 5801 5803 5804 5805 5806 5806 5807 5808 5809 5810 5810 5811 5811 5812 5812 5813 5813 5813 5813 5813 5813 5813 5814 5813 5813 5813 5813 5813 5813 5812 5812 5811 5811 5810 5810 5810 5809 5808 5808 5808 5807 5806 5806
5675 5677 5681 5685 5687 5687 5687 5689 5696 5704 5708 5711 5715 5717 5719 5721 5725 5730 5735 5738 5739 5741 5745 5746 5747 5754 5763 5767 5770 5775 5779 5781 5782 5781 5783 5786 5788 5789 5791 5792 5793 5794 5795 5797 5798 5800 5801 5802 5803 5804 5804 5805 5806 5806 5807 5807 5808 5808 5808 5808 5808 5808 5808 5808 5808 5809 5809 5809 5808 5808 5808 5807 5807 5806 5805 5805 5804 5804 5803 5802 5802 5801 5801 5800 5800 5799
5668 5671 5675 5678 5677 5678 5683 5691 5700 5704 5706 5710 5712 5713 5716 5717 5719 5723 5725 5727 5732 5735 5739 5741 5742 5749 5757 5761 5766 5772 5776 5778 5778 5778 5779 5781 5783 5785 5786 5787 5788 5790 5791 5792 5794 5795 5796 5798 5800 5801 5801 5802 5802 5803 5803 5803 5803 5804 5803 5803 5803 5803 5803 5804 5804 5804 5804 5804 5803 5803 5802 5802 5801 5800 5800 5799 5798 5798 5797 5796 5795 5794 5794 5793 5793 5792
5664 5667 5670 5671 5673 5677 5682 5689 5694 5696 5700 5704 5704 5707 5712 5712 5713 5718 5720 5726 5732 5735 5739 5740 5739 5745 5753 5758 5763 5768 5772 5775 5775 5775 5775 5775 5778 5780 5781 5782 5783 5785 5786 5788 5790 5791 5792 5794 5795 5797 5798 5799 5799 5799 5799 5799 5799 5799 5799 5799 5799 5799 5799 5799 5799 5799 5799 5798 5798 5798 5797 5796 5796 5795 5794 5794 5793 5792 5791 5790 5789 5788 5787 5787 5786 5785
5658 5660 5662 5666 5670 5673 5675 5680 5686 5690 5692 5693 5693 5699 5703 5704 5711 5717 5721 5727 5729 5731 5738 5736 5734 5743 5751 5754 5760 5764 5767 5769 5770 5770 5770 5770 5772 5773 5775 5776 5778 5779 5782 5784 5785 5787 5788 5790 5791 5793 5794 5794 5795 5795 5795 5795 5795 5795 5795 5795 5795 5795 5795 5794 5794 5794 5793 5793 5792 5792 5791 5791 5790 5790 5789 5788 5787 5787 5786 5785 5784 5783 5782 5781 5780 5779
5652 5654 5655 5660 5663 5664 5665 5668 5673 5677 5680 5683 5690 5696 5699 5704 5710 5712 5717 5720 5719 5724 5731 5728 5731 5743 5747 5748 5754 5757 5758 5762 5765 5766 5766 5766 5765 5766 5768 5771 5773 5775 5777 5779 5781 5783 5784 5786 5787 5788 5788 5789 5789 5790 5790 5791 5791 5791 5791 5791 5791 5790 5790 5789 5789 5788 5788 5787 5787 5786 5786 5785 5785 5784 5783 5782 5782 5781 5780 5779 5778 5777 5776 5775 5774 5772
5648 5647 5649 5652 5653 5653 5655 5657 5663 5672 5678 5682 5689 5694 5698 5703 5704 5707 5712 5712 5711 5720 5723 5719 5729 5741 5742 5742 5745 5747 5750 5754 5760 5763 5762 5761 5759 5759 5763 5766 5768 5771 5773 5775 5777 5778 5780 5781 5782 5783 5783 5783 5784 5785 5785 5786 5786 5787 5786 5786 5786 5785 5785 5784 5783 5783 5782 5782 5781 5781 5780 5779 5779 5778 5777 5776 5776 5775 5774 5773 5772 5771 5770 5769 5768 5766
5640 5640 5643 5646 5648 5652 5656 5660 5667 5673 5676 5679 5685 5690 5693 5696 5697 5700 5702 5701 5708 5716 5712 5712 5727 5735 5736 5738 5738 5739 5743 5748 5756 5760 5757 5755 5754 5755 5758 5761 5763 5766 5768 5770 5772 5773 5775 5776 5776 5777 5777 5778 5779 5780 5781 5781 5781 5781 5781 5780 5780 5780 5779 5778 5777 5777 5776 5776 5775 5775 5774 5774 5773 5772 5771 5770 5769 5768 5768 5766 5765 5765 5763 5762 5761 5760
5633 5634 5638 5642 5647 5652 5655 5659 5664 5667 5670 5677 5683 5685 5686 5688 5689 5689 5689 5695 5705 5703 5698 5710 5723 5724 5728 5733 5731 5733 5737 5742 5750 5754 5751 5749 5750 5752 5754 5755 5756 5759 5761 5764 5767 5768 5770 5770 5770 5771 5772 5773 5775 5775 5776 5776 5776 5776 5775 5775 5775 5774 5774 5773 5772 5771 5770 5770 5769 5769 5768 5768 5767 5766 5765 5764 5763 5762 5761 5760 5759 5758 5757 5755 5754 5753
5626 5629 5636 5640 5643 5647 5649 5653 5658 5661 5666 5674 5677 5679 5682 5684 5684 5685 5689 5696 5699 5694 5698 5714 5717 5713 5722 5728 5726 5730 5733 5735 5742 5745 5743 5744 5745 5746 5748 5748 5749 5752 5755 5758 5761 5762 5763 5764 5765 5766 5767 5769 5769 5769 5770 5770 5770 5770 5769 5769 5769 5768 5768 5767 5767 5766 5765 5764 5763 5762 5762 5761 5760 5760 5758 5758 5757 5755 5754 5753 5752 5751 5750 5749 5748 5746
5621 5626 5632 5634 5638 5641 5642 5647 5652 5655 5659 5664 5667 5672 5676 5678 5681 5685 5689 5694 5695 5692 5700 5711 5708 5708 5719 5723 5724 5728 5727 5726 5732 5735 5736 5738 5738 5738 5740 5740 5743 5746 5749 5753 5755 5756 5757 5758 5759 5761 5762 5763 5763 5764 5764 5764 5764 5764 5764 5764 5763 5762 5762 5762 5761 5760 5759 5758 5757 5756 5755 5755 5754 5753 5752 5751 5750 5749 5748 5747 5746 5745 5743 5742 5740 5739
5616 5621 5626 5629 5632 5633 5635 5641 5646 5648 5651 5655 5659 5664 5668 5670 5674 5678 5682 5687 5687 5687 5696 5703 5700 5705 5715 5717 5718 5722 5720 5720 5724 5727 5730 5730 5729 5731 5733 5735 5738 5741 5745 5748 5750 5751 5751 5752 5753 5755 5756 5757 5757 5758 5759 5759 5759 5759 5758 5758 5758 5757 5757 5756 5756 5755 5754 5753 5752 5751 5750 5749 5748 5748 5746 5745 5744 5743 5742 5741 5740 5738 5737 5736 5734 5732
5612 5616 5620 5623 5623 5624 5631 5636 5639 5643 5647 5646 5648 5655 5660 5663 5667 5671 5677 5682 5682 5685 5693 5694 5692 5701 5711 5712 5713 5717 5717 5717 5718 5720 5723 5723 5722 5725 5728 5730 5733 5737 5739 5742 5744 5745 5745 5746 5747 5748 5749 5751 5752 5753 5753 5753 5753 5753 5753 5753 5753 5752 5751 5750 5750 5749 5748 5747 5746 5745 5745 5743 5743 5742 5741 5740 5739 5737 5736 5735 5733 5732 5730 5729 5728 5726
5607 5610 5613 5616 5617 5621 5628 5630 5634 5639 5636 5631 5638 5650 5657 5660 5665 5669 5673 5677 5679 5682 5685 5685 5690 5701 5706 5705 5708 5711 5711 5712 5713 5715 5717 5717 5717 5719 5722 5725 5728 5731 5734 5736 5737 5738 5738 5739 5741 5742 5744 5746 5747 5747 5747 5747 5748 5747 5747 5747 5747 5746 5745 5744 5743 5742 5742 5741 5740 5739 5739 5738 5737 5736 5735 5734 5733 5731 5730 5728 5727 5725 5724 5722 5721 5719
5600 5604 5608 5611 5614 5618 5621 5626 5629 5625 5619 5625 5642 5653 5655 5658 5663 5665 5668 5672 5674 5675 5677 5681 5690 5696 5696 5697 5702 5703 5704 5706 5706 5707 5709 5710 5710 5712 5714 5718 5721 5724 5727 5729 5730 5731 5732 5734 5736 5737 5739 5740 5741 5741 5741 5741 5742 5741 5741 5741 5740 5740 5739 5738 5737 5736 5735 5735 5734 5734 5733 5732 5731 5730 5729 5728 5726 5725 5724 5722 5721 5719 5718 5716 5714 5713
5593 5597 5601 5605 5608 5612 5615 5618 5615 5610 5617 5633 5643 5646 5648 5653 5658 5660 5663 5666 5668 5669 5673 5679 5685 5689 5689 5692 5697 5698 5699 5700 5698 5699 5701 5702 5703 5706 5707 5710 5714 5718 5722 5723 5723 5724 5726 5728 5730 5732 5734 5734 5734 5735 5735 5736 5736 5735 5735 5734 5733 5733 5732 5731 5731 5730 5729 5728 5728 5727 5727 5726 5725 5724 5723 5722 5721 5719 5718 5716 5715 5713 5712 5710 5709 5707
5588 5591 5594 5598 5602 5605 5607 5606 5604 5610 5623 5630 5631 5635 5641 5646 5649 5651 5654 5658 5663 5666 5669 5673 5679 5682 5681 5685 5689 5692 5693 5693 5690 5690 5693 5694 5697 5700 5701 5703 5708 5712 5715 5715 5716 5718 5721 5723 5725 5727 5727 5727 5728 5729 5729 5730 5730 5729 5729 5728 5727 5726 5726 5725 5724 5724 5723 5722 5722 5721 5721 5720 5719 5718 5717 5716 5715 5713 5712 5710 5709 5707 5706 5704 5702 5700
5582 5585 5589 5592 5594 5597 5599 5600 5605 5612 5615 5618 5624 5632 5637 5641 5646 5649 5650 5656 5661 5662 5663 5668 5673 5675 5677 5682 5685 5685 5686 5685 5682 5684 5687 5689 5692 5695 5697 5698 5701 5705 5707 5708 5710 5713 5715 5717 5719 5720 5721 5722 5722 5723 5723 5724 5724 5723 5723 5722 5721 5720 5720 5719 5718 5718 5717 5716 5716 5715 5715 5714 5713 5711 5710 5709 5708 5707 5705 5703 5702 5700 5699 5698 5696 5694
5577 5580 5584 5586 5588 5592 5593 5596 5600 5601 5603 5614 5625 5632 5638 5642 5644 5643 5643 5646 5652 5655 5658 5665 5670 5672 5675 5678 5678 5678 5678 5675 5675 5681 5687 5687 5688 5692 5693 5693 5694 5697 5700 5702 5705 5708 5709 5711 5713 5714 5715 5716 5716 5717 5717 5717 5717 5717 5717 5716 5715 5714 5714 5713 5712 5711 5711 5710 5709 5709 5708 5707 5706 5705 5703 5702 5701 5700 5698 5697 5696 5694 5693 5692 5690 5689
5571 5574 5577 5580 5582 5585 5587 5590 5592 5593 5603 5617 5625 5630 5634 5634 5634 5635 5631 5632 5642 5651 5655 5660 5664 5666 5668 5669 5670 5670 5667 5664 5671 5682 5685 5683 5685 5688 5688 5687 5688 5690 5694 5697 5699 5701 5703 5705 5707 5708 5709 5710 5710 5710 5711 5711 5711 5711 5710 5709 5709 5708 5707 5706 5705 5705 5704 5703 5702 5702 5701 5701 5700 5698 5697 5696 5695 5694 5692 5691 5690 5688 5687 5685 5684 5682
5566 5568 5570 5571 5574 5579 5582 5584 5586 5592 5604 5616 5621 5624 5624 5625 5627 5625 5619 5626 5643 5651 5651 5656 5661 5662 5664 5664 5663 5661 5659 5663 5673 5680 5680 5680 5682 5682 5681 5682 5683 5685 5688 5691 5692 5695 5697 5700 5701 5701 5702 5703 5704 5704 5704 5705 5705 5704 5703 5703 5702 5701 5700 5700 5699 5698 5697 5696 5695 5695 5695 5694 5693 5692 5691 5690 5689 5687 5686 5685 5683 5682 5680 5679 5677 5676
5559 5562 5563 5565 5569 5573 5575 5578 5582 5590 5602 5611 5615 5616 5615 5616 5615 5610 5614 5632 5646 5646 5648 5653 5655 5656 5657 5656 5655 5655 5659 5664 5669 5671 5672 5674 5675 5675 5676 5678 5679 5680 5683 5685 5687 5689 5691 5693 5694 5695 5696 5697 5697 5698 5698 5698 5698 5697 5697 5696 5695 5695 5694 5693 5693 5692 5691 5690 5689 5689 5688 5688 5687 5687 5685 5684 5683 5681 5680 5678 5677 5675 5674 5672 5671 5669
5553 5557 5559 5561 5564 5566 5570 5573 5577 5585 5597 5606 5608 5607 5605 5604 5603 5608 5624 5637 5638 5638 5643 5645 5644 5646 5646 5646 5648 5652 5656 5659 5659 5660 5664 5667 5668 5670 5672 5673 5673 5675 5676 5678 5681 5683 5685 5687 5688 5688 5689 5690 5690 5691 5691 5692 5691 5691 5690 5690 5689 5689 5688 5688 5687 5686 5685 5685 5684 5683 5683 5683 5682 5681 5680 5678 5677 5676 5674 5672 5671 5669 5668 5667 5665 5664
5548 5551 5553 5556 5559 5562 5564 5565 5569 5582 5597 5602 5600 5599 5599 5600 5604 5614 5624 5627 5627 5632 5636 5634 5635 5638 5638 5640 5644 5647 5649 5650 5651 5654 5657 5658 5661 5664 5665 5666 5668 5669 5671 5673 5675 5677 5679 5680 5681 5682 5683 5683 5684 5685 5685 5685 5685 5685 5684 5684 5683 5683 5683 5682 5681 5681 5680 5679 5679 5678 5678 5677 5676 5675 5674 5673 5672 5670 5669 5668 5666 5665 5663 5662 5660 5659
5540 5544 5548 5554 5557 5557 5558 5563 5573 5587 5596 5597 5596 5597 5598 5599 5604 5610 5613 5616 5621 5625 5625 5625 5629 5631 5631 5636 5639 5640 5641 5643 5645 5648 5650 5650 5654 5657 5658 5661 5663 5664 5666 5668 5669 5672 5673 5673 5674 5675 5676 5677 5678 5679 5679 5679 5678 5678 5678 5678 5678 5677 5676 5676 5676 5675 5674 5674 5673 5672 5672 5671 5670 5669 5668 5667 5666 5665 5664 5662 5661 5659 5658 5656 5655 5653
5537 5544 5548 5550 5552 5553 5557 5566 5575 5582 5586 5589 5593 5594 5593 5594 5599 5603 5605 5609 5614 5617 5618 5618 5620 5623 5626 5630 5631 5632 5635 5637 5638 5641 5643 5644 5647 5650 5652 5656 5658 5660 5662 5663 5664 5665 5666 5666 5668 5669 5670 5671 5672 5672 5672 5672 5672 5672 5672 5672 5671 5671 5671 5670 5670 5669 5668 5668 5667 5666 5666 5665 5664 5663 5662 5661 5660 5659 5658 5656 5655 5653 5652 5650 5649 5647
5537 5541 5541 5543 5545 5548 5553 5561 5567 5572 5578 5584 5587 5586 5587 5590 5594 5597 5599 5601 5605 5609 5611 5610 5612 5617 5620 5622 5625 5627 5629 5630 5633 5636 5637 5640 5642 5644 5648 5652 5653 5654 5656 5656 5657 5658 5659 5660 5662 5663 5664 5665 5665 5665 5666 5666 5666 5666 5665 5665 5665 5665 5665 5664 5663 5663 5662 5661 5661 5660 5659 5659 5658 5657 5656 5654 5653 5652 5651 5650 5648 5647 5646 5644 5643 5642
5529 5532 5534 5537 5539 5542 5549 5558 5565 5569 5573 5577 5578 5580 5584 5586 5588 5590 5592 5595 5598 5601 5603 5604 5606 5610 5613 5615 5619 5621 5623 5626 5629 5630 5632 5635 5637 5639 5643 5644 5645 5647 5647 5648 5650 5651 5653 5655 5656 5657 5657 5658 5658 5659 5659 5659 5660 5659 5659 5659 5659 5659 5658 5658 5657 5656 5656 5655 5654 5654 5653 5652 5651 5649 5649 5648 5647 5645 5644 5643 5642 5641 5639 5638 5637 5636
5523 5526 5529 5532 5535 5540 5549 5557 5560 5561 5566 5570 5572 5575 5578 5579 5580 5581 5584 5586 5589 5592 5595 5598 5601 5604 5607 5609 5612 5616 5620 5623 5624 5626 5629 5630 5632 5634 5635 5636 5638 5639 5640 5642 5644 5646 5647 5649 5649 5649 5650 5651 5652 5653 5653 5653 5653 5653 5652 5653 5652 5652 5652 5651 5650 5650 5649 5648 5648 5647 5646 5645 5644 5643 5642 5641 5640 5639 5638 5637 5636 5635 5633 5632 5631 5629
5516 5517 5521 5527 5531 5536 5544 5551 5554 5556 5561 5566 5566 5567 5570 5571 5572 5573 5575 5578 5581 5584 5588 5591 5594 5597 5600 5603 5607 5612 5616 5619 5621 5623 5624 5624 5625 5627 5628 5629 5631 5632 5633 5636 5638 5639 5640 5641 5641 5642 5643 5644 5645 5646 5646 5646 5646 5646 5646 5646 5645 5645 5644 5644 5643 5643 5642 5641 5640 5639 5639 5638 5637 5637 5636 5635 5633 5632 5631 5630 5629 5628 5627 5625 5624 5623
5507 5511 5519 5523 5525 5532 5542 5548 5550 5553 5556 5558 5558 5558 5561 5564 5565 5567 5569 5573 5575 5576 5579 5583 5587 5591 5595 5598 5602 5606 5610 5612 5614 5615 5616 5618 5620 5621 5622 5623 5624 5625 5627 5629 5630 5631 5632 5632 5633 5635 5636 5638 5639 5639 5639 5640 5640 5639 5639 5639 5639 5638 5638 5637 5636 5636 5635 5634 5633 5633 5632 5631 5630 5630 5629 5628 5627 5625 5624 5623 5622 5621 5620 5618 5617 5616
5503 5511 5518 5519 5522 5533 5541 5542 5543 5545 5547 5549 5549 5551 5554 5556 5559 5561 5564 5567 5569 5570 5573 5578 5583 5586 5589 5592 5595 5598 5602 5605 5607 5609 5611 5613 5614 5615 5616 5616 5617 5619 5620 5621 5622 5623 5623 5624 5626 5628 5630 5631 5632 5632 5632 5633 5633 5633 5633 5632 5632 5632 5631 5630 5630 5629 5628 5628 5627 5626 5626 5625 5623 5623 5622 5621 5620 5619 5617 5616 5615 5614 5613 5612 5611 5610